Weather History for KHIE - March, 2013

Change the Weather History Date:

Saturday, March 23, 2013

  Actual Average Record
Temperature  
Mean Temperature 26 °F -  
Max Temperature 32 °F 37 °F 62 °F (2012)
Min Temperature 21 °F 16 °F -8 °F (2004)
Degree Days  
Heating Degree Days 38    
Moisture  
Dew Point 20 °F    
Average Humidity 72    
Maximum Humidity 85    
Minimum Humidity 60    
Precipitation  
Precipitation 0.00 in - - ()
Sea Level Pressure  
Sea Level Pressure 29.62 in    
Wind  
Wind Speed 9 mph (WSW)    
Max Wind Speed 21 mph    
Max Gust Speed 31 mph    
Visibility 7 miles    
Events Snow    
Averages and records for this station are not official NWS values.
T = Trace of Precipitation, MM = Missing Value Source: NWS Daily Summary

Daily Weather History Graph

Daily Weather History Graph

Search for Another Location

Airport or City:

Trip Planner

Search our weather history database for the weather conditions in past years. The results will help you decide how hot, cold, wet, or windy it might be!

Date:

Astronomy

Mar. 23, 2013 Rise Set
Actual Time 6:43 AM EDT 7:02 PM EDT
Civil Twilight 6:14 AM EDT 7:31 PM EDT
Nautical Twilight 5:40 AM EDT 8:05 PM EDT
Astronomical Twilight 5:05 AM EDT 8:41 PM EDT
Moon 3:19 PM EDT (3/23) 4:25 AM EDT (3/23)
Length of Visible Light 13h 17m
Length of Day
12h 19m
Waxing Gibbous, 85% of the Moon is Illuminated
Mar 23
Waxing Gibbous
Mar 27
Full
Apr 3
Last Quarter
Apr 10
New
Apr 18
First Quarter

Hourly Weather History & Observations

Time (EDT) Temp. Windchill Dew Point Humidity Pressure Visibility Wind Dir Wind Speed Gust Speed Precip Events Conditions
12:52 AM 24.1 °F 18.2 °F 17.1 °F 75% 29.69 in 9.0 mi SW 4.6 mph - 0.00 in Snow Light Snow
1:50 AM 23.0 °F 15.8 °F 17.6 °F 80% 29.64 in 9.0 mi SSW 5.8 mph - 0.00 in Snow Light Snow
1:52 AM 23.0 °F 15.8 °F 18.0 °F 81% 29.68 in 9.0 mi SW 5.8 mph - 0.00 in   Overcast
2:52 AM 23.0 °F 17.0 °F 18.0 °F 81% 29.67 in 7.0 mi SW 4.6 mph - 0.00 in Snow Light Snow
3:07 AM 23.0 °F 15.8 °F 17.6 °F 80% 29.62 in 5.0 mi SW 5.8 mph - 0.00 in Snow Light Snow
3:23 AM 23.0 °F 14.7 °F 17.6 °F 80% 29.61 in 7.0 mi SW 6.9 mph - 0.00 in Snow Light Snow
3:45 AM 23.0 °F 15.8 °F 17.6 °F 80% 29.60 in 6.0 mi SW 5.8 mph - 0.00 in Snow Light Snow
3:52 AM 21.9 °F 14.5 °F 18.0 °F 85% 29.64 in 5.0 mi SW 5.8 mph - 0.00 in Snow Light Snow
4:52 AM 23.0 °F 17.0 °F 19.0 °F 85% 29.62 in 10.0 mi SSW 4.6 mph - 0.00 in   Overcast
5:52 AM 24.1 °F 15.2 °F 19.0 °F 81% 29.63 in 9.0 mi SW 8.1 mph - 0.00 in Snow Light Snow
6:28 AM 24.8 °F 20.5 °F 19.4 °F 80% 29.58 in 9.0 mi SW 3.5 mph - 0.00 in   Overcast
6:43 AM 24.8 °F 20.5 °F 19.4 °F 80% 29.58 in 8.0 mi SSW 3.5 mph - 0.00 in Snow Light Snow
6:52 AM 24.1 °F 18.2 °F 19.9 °F 84% 29.63 in 6.0 mi SSW 4.6 mph - 0.00 in Snow Light Snow
7:52 AM 26.1 °F 16.8 °F 19.0 °F 75% 29.62 in 9.0 mi West 9.2 mph - 0.00 in Snow Light Snow
8:17 AM 26.6 °F 16.8 °F 19.4 °F 74% 29.57 in 1.8 mi WSW 10.4 mph - 0.00 in Snow Light Snow
8:39 AM 26.6 °F 17.5 °F 19.4 °F 74% 29.57 in 3.0 mi WSW 9.2 mph - 0.00 in Snow Light Snow
8:52 AM 26.1 °F 17.6 °F 19.9 °F 78% 29.62 in 3.0 mi West 8.1 mph - 0.00 in Snow Light Snow
9:52 AM 28.0 °F 20.0 °F 19.9 °F 72% 29.61 in 7.0 mi West 8.1 mph - 0.00 in Snow Light Snow
10:10 AM 28.4 °F 17.5 °F 19.4 °F 69% 29.57 in 7.0 mi West 13.8 mph 19.6 mph 0.00 in Snow Light Snow
10:22 AM 28.4 °F 18.5 °F 19.4 °F 69% 29.56 in 5.0 mi West 11.5 mph 20.7 mph 0.00 in Snow Light Snow
10:52 AM 30.0 °F 20.0 °F 19.0 °F 64% 29.59 in 10.0 mi West 12.7 mph 29.9 mph 0.00 in   Overcast
11:24 AM 30.2 °F 18.1 °F 17.6 °F 60% 29.54 in 9.0 mi West 18.4 mph 27.6 mph 0.00 in   Overcast
11:52 AM 30.0 °F 19.5 °F 18.0 °F 61% 29.59 in 10.0 mi West 13.8 mph 29.9 mph 0.00 in Snow Light Snow
12:11 PM 30.2 °F 19.3 °F 19.4 °F 64% 29.55 in 3.0 mi West 15.0 mph 25.3 mph 0.00 in Snow Light Snow
12:22 PM 30.2 °F 20.8 °F 21.2 °F 69% 29.55 in 2.5 mi West 11.5 mph 20.7 mph 0.00 in Snow Light Snow
12:32 PM 30.2 °F 19.8 °F 21.2 °F 69% 29.55 in 4.0 mi West 13.8 mph 19.6 mph 0.00 in Snow Light Snow
12:52 PM 30.0 °F 20.5 °F 21.9 °F 72% 29.60 in 4.0 mi West 11.5 mph 19.6 mph 0.00 in Snow Light Snow
1:16 PM 32.0 °F 22.5 °F 19.4 °F 60% 29.55 in 9.0 mi WNW 12.7 mph 20.7 mph 0.00 in Snow Light Snow
1:47 PM 30.2 °F 17.8 °F 21.2 °F 69% 29.56 in 3.0 mi WNW 19.6 mph 31.1 mph 0.00 in Snow Light Snow
1:52 PM 30.9 °F 20.7 °F 21.0 °F 67% 29.60 in 3.0 mi WNW 13.8 mph 31.1 mph 0.00 in Snow Light Snow
2:02 PM 30.2 °F 17.4 °F 21.2 °F 69% 29.56 in 2.0 mi WNW 20.7 mph 27.6 mph 0.00 in Snow Light Snow
2:21 PM 30.2 °F 18.5 °F 21.2 °F 69% 29.57 in 3.0 mi West 17.3 mph 25.3 mph 0.00 in Snow Light Snow
2:32 PM 30.2 °F 19.3 °F 23.0 °F 75% 29.58 in 2.0 mi West 15.0 mph 27.6 mph 0.00 in Snow Light Snow
2:52 PM 30.9 °F 21.2 °F 23.0 °F 72% 29.63 in 2.0 mi WNW 12.7 mph 26.5 mph 0.00 in Snow Light Snow
3:17 PM 30.2 °F 20.8 °F 23.0 °F 75% 29.59 in 4.0 mi West 11.5 mph 19.6 mph 0.00 in Snow Light Snow
3:52 PM 30.9 °F 19.8 °F 21.0 °F 67% 29.64 in 7.0 mi WNW 16.1 mph 24.2 mph 0.00 in Snow Light Snow
4:27 PM 30.2 °F 19.3 °F 21.2 °F 69% 29.61 in 9.0 mi West 15.0 mph 20.7 mph 0.00 in Snow Light Snow
4:45 PM 30.2 °F 20.8 °F 21.2 °F 69% 29.62 in 9.0 mi West 11.5 mph 20.7 mph 0.00 in Snow Light Snow
4:52 PM 30.9 °F 20.2 °F 21.0 °F 67% 29.66 in 9.0 mi West 15.0 mph 23.0 mph 0.00 in Snow Light Snow
4:59 PM 30.2 °F 20.8 °F 21.2 °F 69% 29.62 in 8.0 mi WNW 11.5 mph 23.0 mph 0.00 in Snow Light Snow
5:19 PM 30.2 °F 19.8 °F 21.2 °F 69% 29.62 in 5.0 mi West 13.8 mph 19.6 mph 0.00 in Snow Light Snow
5:52 PM 32.0 °F 21.6 °F 21.0 °F 64% 29.68 in 9.0 mi West 15.0 mph 24.2 mph 0.00 in Snow Light Snow
6:52 PM 32.0 °F 21.6 °F 21.0 °F 64% 29.70 in 10.0 mi West 15.0 mph 26.5 mph 0.00 in   Overcast
7:52 PM 30.9 °F 21.2 °F 21.9 °F 69% 29.72 in 9.0 mi WSW 12.7 mph 21.9 mph 0.00 in Snow Light Snow
8:44 PM 30.2 °F 21.9 °F 21.2 °F 69% 29.70 in 7.0 mi West 9.2 mph 17.3 mph 0.00 in Snow Light Snow
8:52 PM 30.9 °F 22.8 °F 21.9 °F 69% 29.75 in 9.0 mi WSW 9.2 mph - 0.00 in Snow Light Snow
9:52 PM 30.0 °F 22.4 °F 23.0 °F 75% 29.76 in 6.0 mi West 8.1 mph - 0.00 in Snow Light Snow
10:52 PM 30.9 °F 22.2 °F 21.9 °F 69% 29.75 in 9.0 mi West 10.4 mph - 0.00 in Snow Light Snow
11:52 PM 30.0 °F 25.2 °F 21.9 °F 72% 29.75 in 10.0 mi SW 4.6 mph - 0.00 in   Overcast